Regional Weather Roundup
Issued by NWS

Home | Current Version | Previous Version | Graphics & Text | Print | Product List | Glossary On
Versions: 1 2 3 4 5 6 7 8 9 10 11 12 13 14 15 16 17 18 19 20 21 22 23 24 25 26 27 28 29 30 31 32 33 34 35 36 37 38 39 40 41 42 43 44 45 46 47 48 49 50
000
ASUS43 KLOT 120158
RWRIL

ILLINOIS REGIONAL WEATHER ROUNDUP
NATIONAL WEATHER SERVICE CHICAGO/ROMEOVILLE IL
900 PM CDT FRI JUL 11 2014

NOTE: "FAIR" INDICATES FEW OR NO CLOUDS BELOW 12,000 FEET WITH NO
SIGNIFICANT WEATHER AND/OR OBSTRUCTIONS TO VISIBILITY.

* THESE STATIONS ARE NOT UNDER NWS QUALITY CONTROL. THEY ALSO MAY NOT
  REPORT WEATHER SUCH AS PRECIPITATION OR FOG.

ILZ001-002-007-009-015-016-024-120300-
NORTHWEST ILLINOIS

CITY           SKY/WX    TMP DP  RH WIND       PRES   REMARKS
MOLINE         MOCLDY    73  68  84 E6        30.05F
$$

ILZ003-004-008-010-011-017-018-120300-
NORTH CENTRAL ILLINOIS

CITY           SKY/WX    TMP DP  RH WIND       PRES   REMARKS
ROCKFORD       NOT AVBL
$$

ILZ005-006-012>014-019>023-120300-
NORTHEAST ILLINOIS

CITY           SKY/WX    TMP DP  RH WIND       PRES   REMARKS
CHICAGO-OHARE  CLOUDY    74  57  55 S5        30.12R
CHICAGO-MIDWAY CLOUDY    79  58  48 S6        30.11S HX  80
AURORA         CLOUDY    73  61  65 E5        30.11S
WAUKEGAN       MOCLDY    70  59  68 SE5       30.12R
DUPAGE AIRPORT CLOUDY    73  59  61 S3        30.11S
WHEELING       CLOUDY    74  60  61 CALM      30.13R
NORTHERLY ISL    N/A     75  58  55 SE2         N/A
$$

LMZ740>746-120300-
SOUTHERN LAKE MICHIGAN

STATION/POSITION SKY/WX   TEMP    WIND        PRES    VSBY  WAVE
                          AIR SEA DIR/SP/G                  HT/PER
                          (F)     (DEG/KT/KT) (MB)    (MI)  (FT/S)
SOUTHERN BUOY              65 63  120/  6/  8 1020.1F         0
WAUKEGAN HARBOR            65     190/  5/  9 1021.0R
HARRISON CRIB              72     140/  8/  9   N/A
BURNHAM HARBOR             76     190/  7       N/A
CALUMET HARBOR             77     170/  5/  8 1020.4F
MICHIGAN CITY              75     160/  4/  6   N/A
$$

ILZ025>027-034>036-040-047-049-050-058-095>099-120300-
WEST-CENTRAL ILLINOIS

CITY           SKY/WX    TMP DP  RH WIND       PRES   REMARKS
$$

ILZ028>032-037-038-041>044-048-051>054-059>061-120300-
CENTRAL ILLINOIS

CITY           SKY/WX    TMP DP  RH WIND       PRES   REMARKS
PEORIA         NOT AVBL
SPRINGFIELD    LGT RAIN  79  67  66 SE6       30.09S HX  81
TAYLORVILLE    NOT AVBL
$$

ILZ033-039-045-046-055>057-062-063-120300-
EAST-CENTRAL ILLINOIS

CITY           SKY/WX    TMP DP  RH WIND       PRES   REMARKS
CHAMPAIGN      MOCLDY    73  65  75 SE8       30.12F
$$

ILZ079-100>102-120300-
SOUTHWEST ILLINOIS

CITY           SKY/WX    TMP DP  RH WIND       PRES   REMARKS
ALTON          MOCLDY    79  73  83 SE5       30.10R HX  82
CAHOKIA*       CLEAR     80  71  74 S3        30.09R HX  84
$$

ILZ064>066-069>071-074>076-080>082-084>086-088>090-092>094-120300-
SOUTH-CENTRAL ILLINOIS

CITY           SKY/WX    TMP DP  RH WIND       PRES   REMARKS
CARBONDALE     CLEAR     79  69  71 SE5       30.12R HX  81
$$

ILZ067-068-072-073-078-083-087-091-120300-
SOUTHEAST ILLINOIS

CITY           SKY/WX    TMP DP  RH WIND       PRES   REMARKS
$$

ABBREVIATIONS USED IN REMARKS
   TC - TEMPERATURE IN CELSIUS
  WCI - WIND CHILL INDEX
   HX - HEAT INDEX
  VSB - VISIBILITY
$$



USA.gov is the U.S. government's official web portal to all federal, state and local government web resources and services.